This is the latest recevied weather packets stored in our database for station/object VA3JLF-1. If no packets are shown the sender has not sent any weather packets the latest 10 day(s).
| Time | Temp. | Humidity | Pressure | Rain* | Wind** | Luminosity | Snow |
|---|---|---|---|---|---|---|---|
| 1777716957 | 3.89° C | 87% | 1010 hPa | 0 mm | - | - | - |
| 1777716357 | 3.89° C | 86% | 1009.8 hPa | 0 mm | - | - | - |
| 1777715758 | 3.89° C | 85% | 1010 hPa | 0 mm | - | - | - |
| 1777715158 | 3.89° C | 87% | 1009.9 hPa | 0 mm | - | - | - |
| 1777714557 | 3.89° C | 86% | 1009.7 hPa | 0 mm | - | - | - |
| 1777713958 | 3.89° C | 85% | 1009.6 hPa | 0 mm | - | - | - |
| 1777713357 | 3.89° C | 85% | 1009.5 hPa | 0 mm | - | - | - |
| 1777712757 | 3.89° C | 84% | 1009.4 hPa | 0 mm | - | - | - |
| 1777712158 | 3.89° C | 85% | 1009.3 hPa | 0 mm | - | - | - |
| 1777711559 | 4.44° C | 84% | 1009.1 hPa | 0 mm | - | - | - |
| 1777710959 | 4.44° C | 83% | 1008.9 hPa | 0 mm | - | - | - |
| 1777710358 | 4.44° C | 84% | 1008.9 hPa | 0 mm | - | - | - |
| 1777709757 | 4.44° C | 82% | 1008.9 hPa | 0 mm | - | - | - |
| 1777709158 | 4.44° C | 82% | 1009.2 hPa | 0 mm | - | - | - |
| 1777708559 | 4.44° C | 80% | 1008.8 hPa | 0 mm | - | - | - |
| 1777707958 | 4.44° C | 79% | 1008.9 hPa | 0 mm | - | - | - |
| 1777707359 | 4.44° C | 79% | 1008.9 hPa | 0 mm | - | - | - |
| 1777706758 | 4.44° C | 80% | 1009 hPa | 0 mm | - | - | - |
| 1777706158 | 5° C | 79% | 1008.9 hPa | 0 mm | - | - | - |
| 1777705558 | 5° C | 81% | 1009 hPa | 0 mm | - | - | - |
| 1777704960 | 5° C | 79% | 1009 hPa | 0 mm | - | - | - |
| 1777704357 | 5° C | 82% | 1009 hPa | 0 mm | - | - | - |
| 1777703758 | 5° C | 82% | 1009.2 hPa | 0 mm | - | - | - |
| 1777703158 | 5.56° C | 87% | 1009.2 hPa | 0 mm | - | - | - |
| 1777702557 | 5° C | 88% | 1009.1 hPa | 0 mm | - | - | - |
* Rain latest hour (hover to see other rain measurements)
** Current wind speed in m/s (hover to see current wind gust speed)